DECAYED

STARLINK-1857, 47144 (Decayed)

Orbit data source: Space-Track

STARLINK-1857, 47144 was a payload satellite owned by SpaceX/Seattle (US) in LEO that was launched on Wed, 25 Nov 2020 UTC via an FALCON 9 launch vehicle from the Air Force Eastern Test Range (AFETR). Payload-class satellites include a variety of spacecraft equipped with specific instruments for various scientific and technological missions. These include communications satellites like Starlink; space stations such as the ISS; scientific satellites like the Hubble; Earth observation satellites from companies like Planet Labs, Umbra, and HawkEye 360; GPS; miniature CubeSats for education and research; and military/defense satellites.

Not visible in the next 10 days
Identifier
47144, 2020-088Y
Orbit
Decayed
Country
Flag of USUS
Related business
Manufacturer
SpaceX/Seattle
Mission
Decayed Commercial Communications
Bus & Motor
STARLINK, Unknown motor
Mass
260 kg wet, ~248 kg dry
Launch date (UTC)
2020-11-25 (6 years ago)
Launch vehicle
FALCON 9
Launch site
Air Force Eastern Test Range (AFETR)
Object type
Payload
Rocket body
Debris
Shape & HBR
Box + 1 Pan, 10.1 m
Radar Cross Section
13.562 m², Large (>1 m²)

Expand to show TLE details & history
Last TLE update: 1 year ago

TLE from 1 year ago
0 STARLINK-1857
1 47144U 20088Y   25052.77815137  .14633607  12450-4  82062-3 0  9998
2 47144  53.0217 151.3852 0002831 307.0857 194.9210 16.42090499235515
Epoch: 2025-02-21T18:40Z
TLE epoch observation values (Epoch: 2025-02-21T18:40:32.278Z)
Latitude
29.5574°
Longitude
-125.80552°
Altitude
163.654 km
Speed
7.811 km/s
True Right ascension
20h 25m 03s
True Declination
29° 23' 48"
Sunlit
Object was in daylight at epoch
Visualization orbit readout
Latitude
Unknown
Longitude
Unknown
Altitude
Unknown
Speed
Unknown
Apparent Right ascension
Unknown
Apparent Declination
Unknown
Sunlit
N/A
Visualization observer readout
Local Sidereal Time
21:25:09
Azimuth
Unknown
Elevation
Unknown
Doppler factor
Unknown
Orbital elements
Apogee altitude
162.39 km
Perigee altitude
158.688 km
Semi-major axis
6,538.676 km
Eccentricity
0.00028
Inclination
53.0217°
RAAN
151.3852°
Arg. of periapsis
307.0857°
True anomaly
194.91265°
Mean anomaly
194.921°
Eccentric anomaly
194.91682°
Mean motion
4.10496 °/min
Orbital period
87.7 mins
BSTAR
0.00082062
Loading maneuver chart data...
Computing Atmospheric mass density...

Documentation

Showing up to 5 results
|